Flag for Guadeloupe Weather past 2 weeks in Pointe-à-Pitre, Guadeloupe

Now
84 °F

Scattered clouds.


Feels Like: 91 °F
Forecast: 76 / 87 °F
Wind: 8 mph from East

Location: Le Raizet - Guadeloupe

Current Time: Oct 25, 2014 at 8:27:30 AM

Latest Report: Oct 25, 2014 at 8:00 AM


Visibility: N/A

Pressure: 29.92 "Hg

Humidity: 70%

Dew point: 73 °F

Location of Pointe-à-PitreLocation

Historic Weather in Pointe-à-Pitre — Graph

°F

Pointe-à-Pitre temperature yesterday

Maximum temperature yesterday: 90 °F (at 12:00 PM)
Minimum temperature yesterday: 75 °F (at 1:30 AM)
Average temperature yesterday: 81 °F

Past Weeks' High & Low Weather Summary

 TemperatureHumidityPressure
High90 °F (Oct 11, 12:30 PM)100% (Oct 17, 6:30 AM)30.01 "Hg (Oct 17, 6:30 AM)
Low72 °F (Oct 17, 1:00 AM)49% (Oct 15, 2:00 PM)29.74 "Hg (Oct 13, 4:00 AM)
Average80 °F78%29.91 "Hg
* Reported Oct 10 7:00 AM — Oct 25 7:30 AM, Pointe-à-Pitre, Weather by CustomWeather, © 2014

Note: Actual official high and low records may vary slightly from our data, if they occured in-between our weather recording intervals... More about our weather records

Advertising

Pointe-à-Pitre weather history for previous 24 hours

 ConditionsComfort  
Time TempWeatherWind HumidityBarometerVisibility
7:30 AM
Oct 25
82 °FPassing clouds.8 mph74%29.92 "HgN/A
7:00 AM81 °FPassing clouds.6 mph74%29.92 "HgN/A
6:30 AM79 °FClear.6 mph79%29.89 "HgN/A
6:00 AM79 °FWarm.7 mph79%29.89 "HgN/A
5:30 AM79 °FWarm.6 mph79%29.86 "HgN/A
5:00 AM79 °FClear.7 mph79%29.86 "HgN/A
4:30 AM77 °FWarm.3 mph83%29.86 "HgN/A
4:00 AM79 °FClear.7 mph79%29.86 "HgN/A
3:30 AM79 °FClear.7 mph84%29.86 "HgN/A
3:00 AM79 °FWarm.5 mph79%29.86 "HgN/A
2:30 AM79 °FWarm.3 mph84%29.86 "HgN/A
2:00 AM79 °FWarm.5 mph84%29.86 "HgN/A
1:30 AM79 °FClear.3 mph84%29.89 "HgN/A
1:00 AM79 °FClear.5 mph84%29.89 "HgN/A
12:30 AM79 °FClear.6 mph84%29.89 "HgN/A
12:00 AM79 °FPassing clouds.5 mph84%29.89 "HgN/A
11:30 PM
Oct 24
79 °FPassing clouds.5 mph84%29.92 "HgN/A
11:00 PM79 °FClear.3 mph84%29.92 "HgN/A
10:30 PM81 °FPassing clouds.6 mph84%29.92 "HgN/A
10:00 PM81 °FPassing clouds.5 mph79%29.92 "HgN/A
9:30 PM81 °FPartly cloudy.5 mph79%29.92 "HgN/A
9:00 PM79 °FClear.5 mph84%29.92 "HgN/A
8:30 PM79 °FClear.3 mph84%29.89 "HgN/A
8:00 PM81 °FClear.5 mph79%29.89 "HgN/A
7:30 PM81 °FClear.3 mph79%29.89 "HgN/A
7:00 PM81 °FPassing clouds.3 mph79%29.86 "HgN/A
6:30 PM81 °FPassing clouds.6 mph79%29.86 "HgN/A
6:00 PM81 °FPassing clouds.6 mph84%29.86 "HgN/A
5:30 PM82 °FScattered clouds.7 mph79%29.86 "HgN/A
5:00 PM82 °FScattered clouds.10 mph79%29.86 "HgN/A
4:30 PM84 °FScattered clouds.13 mph66%29.86 "HgN/A
4:00 PM86 °FScattered clouds.12 mph62%29.86 "HgN/A
3:30 PM88 °FScattered clouds.13 mph59%29.86 "HgN/A
3:00 PM88 °FScattered clouds.12 mph59%29.86 "HgN/A
2:30 PM88 °FScattered clouds.13 mph59%29.86 "HgN/A
2:00 PM88 °FScattered clouds.10 mph59%29.89 "HgN/A
1:30 PM88 °FScattered clouds.14 mph62%29.89 "HgN/A
1:00 PM90 °FScattered clouds.12 mph52%29.89 "HgN/A
12:30 PM88 °FScattered clouds.14 mph55%29.92 "HgN/A
12:00 PM90 °FScattered clouds.14 mph55%29.92 "HgN/A
11:30 AM88 °FScattered clouds.12 mph62%29.95 "HgN/A
11:00 AM88 °FScattered clouds.9 mph62%29.95 "HgN/A
10:30 AM88 °FScattered clouds.10 mph59%29.95 "HgN/A
10:00 AM86 °FScattered clouds.8 mph66%29.98 "HgN/A
9:30 AM84 °FScattered clouds.6 mph70%29.98 "HgN/A
9:00 AM84 °FPassing clouds.8 mph74%29.98 "HgN/A
8:30 AM84 °FPassing clouds.6 mph70%29.98 "HgN/A
8:00 AM82 °FScattered clouds.7 mph79%29.98 "HgN/A
Weather by CustomWeather, © 2014

See weather overviewHow to use our weather pages